星链-11302 (STARLINK-11302)

导读

STARLINK-11302是美国SpaceX公司星链星座的一颗卫星,于2024年9月20日发射升空,隶属于美国太空探索技术公司打造的星链互联网星座项目。星链项目旨在为全球提供低延迟、高速率的卫星互联网服务,该卫星入轨后将进一步扩充星链星座规模,提升全球网络覆盖能力,推动全球互联网络基础设施建设。

基本信息
目录编号:
61204
目录名称:
STARLINK-11302
国际标识:
2024-171E
轨道中心:
EARTH
卫星名称:
星链-11302
卫星全名:
星链-11302 (STARLINK-11302)
卫星状态:
在轨 (已飞行722 天)
发射日期:
2024-09-20 UTC
国别 :
美国 (US)
星等 :
--
该卫星已列入 空间交会检测服务 Space Conjunction Data Service (SCDS) ,当前飞行风险评估等级: 无高风险
轨道信息
数据来源 国际轨道数据
星历时间: 2026-09-11T20:07:04+0800
16小时前
查看轨道信息
半长轴: 6737.877km
偏心率: 0.0001145
轨道倾角: 53.159°
近地点辐角 80.987°
升交点赤经 340.223°
平近点角 279.128°
近地点: 358.968km
远地点: 360.512km
周期: 91.737分钟
每日圈数: 15.697056
详细信息
固有亮度:
5
最大亮度:
2.5
卫星平台:
Starlink V1.0
覆盖范围:
全球
运营商:
太空探索技术公司
运营商所在国:
美国
制造商(研发单位):
太空探索技术公司
制造商所在国:
美国
使用方式:
暂无
卫星简介
Starlink 计划是 SpaceX 推出的全球卫星互联网项目,通过发射低轨道卫星,为全球尤其是偏远地区提供高速、低延迟的互联网服务。自 2019 年起,Starlink 已部署数千颗卫星,旨在缩小全球数字鸿沟,推动互联网普及。该项目还为军事、航空等行业提供通信支持,带来广泛经济效益。
2D轨道图
3D轨道图
轨道高度分析图
轨道倾角分析图
轨道综合分析图
查看轨道综合分析图
交会数据列表
事件ID 空间交会对象 最接近时刻(TCA) 交会距离 交会风险概率(CRP) 交会风险指数(CRI) 操作
CDM_260907-231606-120406-164221
2026-09-07T
23:16:18+0000
0.463 km
远距离
2.089737E-4 高风险 0.81
CDM_260913-062406-120406-221921
2026-09-13T
06:24:58+0000
0.677 km
远距离
5.978817E-5 中风险 0.71
CDM_260913-023506-120406-221921
2026-09-13T
02:35:46+0000
1.448 km
极远距离
4.744805E-6 低风险 0.49
与全量物体交会距离演化趋势
与全量物体交会风险概率演化趋势